{"data":{"norad_id":65301,"epoch":"2026-05-25T05:01:38.735040Z","epoch_age_seconds":53994,"freshness":"FRESH","line1":"1 65301U 25185E   26145.20947610  .00005458  00000+0  74660-3 0  9990","line2":"2 65301  97.9642 228.8119 0016841 151.1961 209.0183 14.78838041 40448","mean_motion":14.78838041,"eccentricity":0.0016841,"inclination_deg":97.9642,"raan_deg":228.8119,"arg_perigee_deg":151.1961,"mean_anomaly_deg":209.0183,"bstar":0.0007466,"rev_number":4044,"period_min":97.373746149123,"perigee_km":621.18682977178,"apogee_km":644.80172213545,"semimajor_km":7011.1312759536,"source":"CELESTRAK","updated_at":"2026-05-25T13:38:05.297822Z"}}